カタログに戻る

SL-12 R/B

AUX MOTOR

運用中HEO
NORAD 14278·ROCKET BODY·🇷🇺 Russia

打ち上げ Aug 10, 1983 から Baikonur Cosmodrome

Loading…

次のパス (今後24時間)

TLE

最新Source: Space-Track

元期: Sep 14, 2026, 05:46 UTC

1 14278U 83084H   26257.24095842  .00005568  00000-0  11247-2 0  9992
2 14278  52.0954 357.8636 5249696 348.1366   3.1854  5.20098004739849

AllMySatでSL-12 R/Bをリアルタイム追跡

Download on the App Store